Wind_Speed
85 83 77 79 80 83 87 86 88 87 87 83 81 76 78 74 72 71 69 67 68 72 74 71 69 69 70 70 70 70 72 74 72 73 74 75 75 77 81 84 84 82 79 75
87 84 84 84 82 78 75 76 85 91 89 86 83 79 77 76 72 70 71 73 75 77 77 77 77 76 74 72 71 73 73 75 77 78 80 78 80 83 86 87 86 86 81 78
91 89 90 86 84 82 80 78 81 82 86 86 85 78 79 78 73 76 78 81 81 82 81 82 80 78 77 76 75 76 78 80 82 83 83 84 88 89 90 90 90 87 85 84
98 97 94 88 85 87 86 85 84 84 83 79 79 73 75 72 76 78 83 85 86 85 84 82 81 80 81 81 82 83 84 84 85 86 89 91 92 92 93 92 89 89 90 94
100 102 99 94 91 91 90 90 88 87 88 86 83 82 74 78 77 83 87 87 88 88 87 85 85 86 86 86 86 87 87 87 89 91 92 92 93 92 92 92 93 94 97 99
104 101 99 97 97 92 93 93 90 90 91 88 86 89 75 79 82 86 88 89 91 93 92 91 91 90 90 90 90 89 88 90 92 92 95 94 92 93 95 98 101 101 103 104
110 102 101 97 100 98 96 95 97 99 100 90 95 98 80 86 86 88 91 91 93 94 96 95 93 92 92 91 93 95 95 95 96 98 99 98 97 99 100 103 105 106 107 106
109 109 105 101 100 101 106 109 108 107 108 103 104 96 92 93 91 92 94 94 95 95 97 95 94 94 98 101 101 99 99 102 103 103 102 101 103 104 104 105 107 109 110 107
115 114 109 107 108 107 109 111 112 117 115 112 107 99 98 95 96 96 97 99 96 95 98 99 101 104 106 105 102 105 108 108 108 107 107 108 109 109 109 110 107 106 105 110
120 121 118 118 119 117 118 118 118 119 120 119 110 108 104 104 98 96 101 104 102 102 106 109 110 111 110 110 112 113 113 114 113 114 114 115 115 115 115 110 108 111 114 117
124 125 129 127 124 124 123 123 125 127 126 123 118 112 106 107 106 102 106 108 108 109 110 111 112 113 113 115 116 119 117 118 119 119 120 119 121 119 114 113 117 119 121 124
129 133 134 131 128 128 127 126 128 128 124 127 128 117 107 114 111 110 109 111 113 113 114 115 116 118 119 121 124 123 123 123 124 125 126 125 123 119 119 121 125 127 129 131
132 136 134 134 129 127 128 128 130 130 134 133 129 118 115 122 118 120 119 118 117 116 117 118 121 123 124 124 125 127 130 130 131 131 130 128 124 124 126 131 133 135 136 140
140 139 138 137 130 133 135 134 135 139 140 129 133 124 122 122 122 123 126 126 123 119 121 121 125 128 129 129 130 131 132 135 132 131 130 130 132 134 135 137 138 141 142 144
145 143 142 139 139 142 136 137 139 143 140 140 130 137 121 126 133 134 131 130 129 130 129 130 132 133 134 135 135 136 136 134 134 135 135 135 136 138 141 144 145 146 145 146
148 149 148 146 143 143 143 141 144 140 138 145 141 139 127 133 139 143 137 138 138 134 134 137 138 139 138 139 140 138 137 136 138 137 138 138 141 145 145 146 150 149 147 138
146 149 151 151 148 151 155 146 142 143 144 141 143 135 136 139 139 142 142 141 141 141 142 142 142 141 143 140 139 139 140 140 140 141 145 146 145 147 149 147 141 138 132 117
146 146 148 150 152 160 151 147 148 146 143 143 145 143 138 140 143 144 142 141 142 144 146 145 143 143 143 141 142 142 143 146 148 147 148 144 145 143 134 127 124 113 109 101
147 147 148 150 148 148 150 144 143 147 149 146 144 140 140 141 146 143 140 144 146 145 145 146 146 145 146 146 147 146 149 148 148 149 143 145 128 117 122 116 103 96 93 92
151 152 157 155 152 153 147 141 144 151 155 141 143 143 144 148 155 145 154 151 150 151 152 149 146 145 146 147 150 152 153 143 138 135 131 120 113 118 98 96 92 90 89 88
156 155 155 156 156 156 151 151 154 157 147 145 146 146 149 153 154 155 150 151 151 150 150 151 151 150 153 148 146 148 139 132 122 117 115 115 105 98 92 91 90 89 89 89
152 158 161 161 165 163 148 152 154 152 155 157 154 152 156 159 160 159 156 154 154 153 154 150 148 147 148 143 137 127 126 126 112 113 106 101 97 93 91 91 90 91 92 94
119 122 128 138 147 161 161 159 155 154 160 156 154 150 154 158 159 158 155 148 143 137 139 135 132 129 119 118 116 106 105 105 104 103 100 97 94 93 92 93 94 96 99 100
108 118 129 130 130 133 133 132 136 140 141 146 145 143 141 144 140 132 127 126 122 122 121 115 112 107 102 99 97 98 98 97 97 98 97 97 97 96 96 97 98 100 103 105
88 94 91 97 99 107 110 118 125 129 133 136 134 130 125 122 118 116 117 116 118 115 111 104 98 95 96 96 95 95 95 96 96 97 97 97 98 99 100 101 103 106 109 112
76 76 78 77 85 86 85 97 102 105 108 113 117 119 116 116 116 115 114 113 111 108 101 95 92 91 94 94 94 94 95 96 96 97 99 99 100 103 105 107 110 113 114 112
Wind_Direction
239 240 241 244 244 244 242 242 244 245 247 249 250 250 254 255 259 260 262 264 266 267 270 273 276 275 277 279 282 284 285 287 289 291 291 292 293 296 298 298 298 297 296 295
238 239 241 242 245 245 247 253 251 247 247 247 249 250 252 255 256 260 264 265 266 268 271 274 274 278 279 281 283 284 286 287 289 290 291 292 294 296 296 297 296 295 294 293
236 238 242 243 244 244 246 249 251 252 251 249 249 251 251 254 257 259 260 263 265 267 269 271 274 277 280 281 280 281 283 286 288 289 291 292 294 295 296 296 295 294 292 293
234 237 241 242 244 246 245 246 247 250 252 251 252 251 257 257 260 263 264 265 266 268 270 273 275 277 278 278 280 282 285 286 288 289 290 292 294 295 294 294 294 294 293 295
235 237 238 240 243 245 247 248 247 249 249 249 253 254 255 259 259 261 264 267 268 270 270 271 273 275 276 278 279 281 283 285 286 288 291 292 291 292 293 293 293 293 293 295
236 239 241 242 242 243 247 247 249 252 254 251 255 257 252 257 259 261 263 265 268 269 271 273 273 274 276 277 279 280 281 283 285 287 290 292 291 294 296 294 293 292 294 296
240 239 244 244 244 246 249 252 252 252 254 253 255 256 254 255 259 261 262 265 267 270 271 272 273 274 274 276 278 279 281 284 286 290 292 291 292 295 296 295 292 291 293 293
239 240 242 243 243 245 247 247 249 250 251 250 252 252 256 257 259 260 261 263 264 266 268 270 272 273 277 279 280 281 283 286 288 290 291 291 293 292 294 293 292 290 290 292
239 239 238 240 242 245 245 247 249 250 251 251 251 252 252 257 258 260 263 265 266 266 264 267 272 275 277 278 281 283 285 287 288 289 289 292 294 292 293 293 291 291 290 290
238 240 239 240 240 240 242 243 246 249 250 252 250 250 253 254 258 260 262 265 266 266 266 269 272 275 277 278 280 283 285 286 288 291 291 292 292 293 292 291 290 289 290 290
240 239 238 238 240 243 244 246 249 251 252 253 251 251 253 255 256 258 261 264 266 266 267 270 272 273 275 278 280 284 285 287 288 290 291 291 292 290 289 288 290 289 290 290
238 238 239 240 242 243 246 247 250 252 256 257 255 253 255 257 259 260 262 264 266 267 268 270 272 274 277 280 282 284 286 287 288 289 289 289 291 289 290 290 290 291 291 292
240 241 243 244 245 247 252 253 254 255 256 257 259 259 260 261 262 263 264 265 266 268 270 270 271 274 277 278 281 284 286 287 288 288 289 290 291 291 291 290 291 292 292 294
241 242 242 244 246 249 250 253 255 256 257 260 261 263 264 265 266 266 266 266 267 269 269 271 273 275 277 278 281 282 283 286 287 289 290 292 291 291 291 291 291 293 295 295
241 243 244 244 246 249 250 251 254 255 258 262 263 263 263 265 265 266 267 269 270 271 271 272 273 275 277 280 281 282 284 285 287 288 288 288 288 289 291 292 293 294 294 295
241 242 244 245 246 249 251 250 250 255 258 259 260 262 265 264 264 265 267 269 270 271 272 273 274 276 278 281 282 283 283 284 284 284 285 287 288 289 292 294 293 293 294 294
242 243 245 246 247 249 249 253 255 255 256 259 261 263 262 264 264 265 266 268 270 271 272 273 275 278 279 279 281 281 282 283 284 286 287 290 291 292 291 291 292 292 292 290
243 245 247 248 248 249 251 252 253 256 258 259 261 261 262 264 265 265 267 269 269 270 271 274 276 278 279 279 280 281 283 285 286 288 289 290 293 290 290 290 289 287 286 287
245 246 247 249 249 251 250 252 255 255 255 256 260 261 262 263 263 264 267 267 268 270 272 274 276 277 278 279 281 283 285 288 290 290 291 289 288 288 290 289 287 286 285 285
245 246 247 248 250 252 253 254 255 255 256 257 259 261 262 263 264 265 264 267 269 271 273 276 277 279 280 281 282 283 285 290 287 291 288 286 287 288 284 284 284 283 282 283
247 249 250 252 252 252 253 253 254 255 258 259 259 260 262 263 265 266 268 269 271 273 274 277 278 280 279 280 281 284 283 285 288 285 284 287 287 285 285 285 284 285 286 286
249 250 249 249 251 254 255 256 257 260 259 260 260 261 263 264 265 267 269 271 273 274 275 276 276 278 278 279 282 282 280 280 282 283 285 285 284 284 284 285 285 286 286 287
249 251 253 254 254 253 252 254 254 257 258 259 259 261 262 265 265 267 269 270 271 271 273 274 276 277 277 279 280 280 278 280 280 282 282 282 283 284 285 285 286 287 287 286
252 249 248 249 251 253 255 255 253 254 254 256 258 259 257 261 264 266 267 270 271 271 272 271 274 276 277 277 276 275 276 276 277 278 280 281 283 283 284 285 285 285 285 286
252 252 252 251 252 253 253 254 254 255 257 256 257 257 259 262 263 264 265 266 268 270 271 273 273 274 273 273 273 274 275 276 278 278 280 281 281 283 284 285 286 286 287 287
256 253 252 252 252 254 252 252 252 254 254 255 258 261 263 262 261 261 262 263 265 267 269 270 270 270 271 272 274 274 275 275 276 278 279 281 282 283 284 284 285 286 287 288
Height
10675 10686 10703 10704 10707 10710 10715 10723 10729 10729 10731 10742 10746 10753 10746 10755 10764 10766 10768 10772 10771 10766 10764 10771 10777 10775 10777 10776 10776 10775 10774 10773 10773 10772 10771 10769 10767 10764 10760 10758 10756 10754 10753 10751
10663 10681 10681 10684 10691 10699 10706 10712 10715 10713 10720 10725 10730 10741 10740 10742 10751 10756 10757 10755 10753 10753 10755 10757 10758 10760 10762 10763 10763 10762 10761 10758 10758 10757 10756 10754 10753 10750 10745 10742 10739 10735 10732 10732
10650 10660 10660 10669 10677 10684 10690 10698 10696 10700 10703 10711 10715 10729 10728 10730 10743 10743 10741 10737 10739 10740 10742 10741 10744 10745 10746 10748 10749 10748 10748 10748 10745 10742 10741 10740 10737 10734 10730 10727 10720 10716 10713 10711
10631 10639 10649 10660 10667 10669 10677 10676 10678 10683 10687 10698 10702 10717 10718 10727 10727 10727 10725 10724 10724 10725 10726 10728 10730 10731 10732 10732 10732 10734 10733 10732 10731 10728 10726 10724 10721 10716 10711 10708 10704 10700 10695 10689
10624 10625 10635 10643 10650 10648 10657 10659 10666 10666 10671 10678 10689 10693 10715 10711 10719 10713 10707 10709 10710 10709 10711 10714 10716 10717 10716 10717 10718 10717 10718 10716 10714 10711 10710 10708 10704 10701 10696 10691 10686 10681 10676 10671
10601 10612 10621 10631 10632 10638 10638 10643 10647 10647 10650 10668 10674 10669 10705 10700 10698 10696 10696 10694 10693 10692 10694 10697 10699 10701 10702 10702 10702 10702 10701 10699 10696 10693 10691 10689 10686 10683 10679 10673 10667 10663 10657 10651
10589 10605 10605 10614 10614 10619 10623 10627 10628 10626 10631 10656 10650 10644 10691 10679 10684 10685 10680 10681 10677 10677 10676 10678 10681 10683 10684 10684 10684 10683 10682 10680 10679 10675 10671 10668 10665 10661 10657 10653 10646 10641 10636 10631
10568 10582 10592 10597 10598 10599 10598 10598 10602 10602 10606 10623 10623 10647 10659 10663 10667 10666 10664 10663 10661 10664 10664 10663 10661 10661 10662 10662 10663 10662 10662 10661 10659 10656 10652 10649 10646 10641 10636 10631 10625 10620 10614 10608
10548 10556 10568 10572 10572 10576 10579 10581 10583 10574 10583 10595 10611 10636 10639 10647 10649 10649 10643 10639 10649 10652 10647 10644 10645 10644 10643 10642 10641 10640 10639 10637 10636 10634 10631 10628 10624 10620 10615 10609 10603 10596 10590 10585
10524 10532 10542 10544 10546 10552 10554 10557 10554 10559 10562 10566 10597 10605 10619 10621 10631 10633 10627 10623 10627 10629 10629 10627 10628 10626 10624 10621 10618 10617 10617 10616 10615 10612 10609 10605 10601 10596 10590 10584 10578 10572 10565 10559
10498 10504 10516 10518 10532 10534 10533 10539 10538 10534 10536 10545 10566 10588 10604 10604 10608 10613 10603 10604 10605 10608 10610 10611 10610 10604 10601 10598 10596 10598 10597 10593 10590 10587 10583 10580 10576 10571 10566 10559 10553 10547 10540 10532
10469 10461 10474 10496 10501 10506 10511 10520 10515 10519 10534 10526 10535 10574 10597 10577 10583 10587 10586 10581 10582 10587 10589 10588 10586 10582 10581 10576 10572 10569 10569 10567 10565 10563 10560 10555 10549 10543 10536 10530 10523 10517 10509 10502
10446 10446 10463 10475 10490 10504 10500 10507 10503 10501 10495 10500 10517 10562 10570 10551 10563 10561 10561 10555 10558 10562 10565 10562 10556 10555 10557 10555 10550 10546 10543 10538 10535 10532 10527 10524 10520 10514 10507 10498 10491 10483 10476 10467
10413 10422 10438 10460 10487 10463 10469 10481 10480 10473 10466 10503 10496 10538 10546 10543 10535 10530 10526 10525 10532 10540 10536 10537 10533 10528 10527 10526 10527 10524 10521 10517 10510 10503 10498 10493 10488 10481 10476 10468 10460 10452 10441 10430
10391 10407 10418 10441 10447 10434 10456 10460 10455 10443 10464 10466 10504 10477 10530 10519 10502 10501 10497 10499 10503 10506 10511 10507 10504 10505 10502 10501 10500 10499 10496 10491 10484 10476 10470 10467 10459 10451 10442 10434 10428 10421 10410 10398
10366 10383 10388 10403 10422 10420 10420 10425 10425 10446 10456 10436 10457 10464 10505 10486 10469 10465 10488 10479 10470 10476 10480 10473 10471 10475 10477 10476 10473 10471 10466 10459 10453 10450 10444 10440 10431 10421 10412 10401 10391 10382 10372 10363
10353 10370 10369 10383 10399 10389 10369 10414 10436 10425 10418 10431 10429 10458 10455 10453 10446 10437 10441 10456 10453 10446 10443 10436 10441 10448 10449 10447 10446 10441 10434 10428 10422 10419 10414 10406 10398 10391 10379 10369 10357 10349 10340 10331
10336 10348 10344 10357 10362 10339 10391 10392 10390 10402 10414 10412 10403 10408 10422 10417 10415 10412 10425 10421 10416 10410 10406 10410 10416 10419 10419 10416 10411 10408 10402 10396 10389 10386 10380 10372 10363 10353 10342 10335 10326 10318 10312 10307
10313 10319 10319 10317 10338 10335 10338 10374 10380 10374 10376 10377 10380 10391 10390 10387 10369 10390 10396 10377 10377 10382 10387 10389 10390 10389 10387 10385 10379 10375 10368 10360 10355 10352 10342 10335 10325 10317 10309 10303 10297 10290 10285 10280
10282 10288 10281 10293 10303 10301 10328 10351 10346 10332 10325 10368 10354 10368 10361 10344 10328 10370 10335 10351 10357 10356 10357 10363 10365 10362 10357 10352 10346 10340 10332 10323 10319 10315 10306 10299 10296 10291 10280 10276 10271 10266 10261 10256
10251 10257 10257 10263 10268 10282 10306 10308 10301 10290 10330 10330 10330 10329 10322 10313 10310 10310 10329 10325 10328 10332 10331 10333 10332 10330 10321 10318 10313 10307 10299 10292 10283 10283 10278 10272 10265 10260 10254 10251 10246 10241 10236 10231
10228 10223 10230 10238 10229 10234 10289 10273 10272 10288 10278 10281 10294 10295 10290 10286 10283 10287 10295 10302 10303 10301 10302 10301 10299 10294 10288 10289 10282 10276 10271 10270 10259 10250 10246 10242 10237 10233 10230 10226 10221 10216 10211 10205
10185 10198 10198 10192 10206 10221 10239 10242 10243 10241 10244 10247 10250 10254 10251 10248 10251 10261 10268 10267 10266 10268 10269 10268 10265 10264 10262 10257 10255 10251 10246 10235 10232 10228 10224 10218 10213 10209 10205 10201 10196 10191 10185 10178
10160 10162 10160 10170 10184 10191 10195 10198 10214 10215 10211 10210 10219 10225 10227 10228 10231 10232 10235 10237 10238 10239 10239 10239 10236 10236 10232 10229 10226 10222 10219 10214 10209 10205 10200 10195 10190 10185 10180 10176 10170 10164 10158 10151
10127 10124 10139 10143 10155 10154 10169 10173 10172 10169 10174 10179 10184 10194 10201 10207 10209 10208 10209 10209 10207 10207 10210 10209 10208 10207 10204 10202 10199 10197 10194 10190 10184 10180 10176 10170 10164 10159 10154 10149 10143 10137 10130 10122
10106 10108 10108 10120 10118 10128 10142 10135 10138 10142 10148 10150 10155 10163 10173 10177 10178 10181 10182 10183 10183 10183 10184 10183 10180 10178 10176 10177 10175 10172 10169 10165 10160 10155 10150 10144 10138 10133 10127 10121 10115 10108 10100 10091